« Back
NWS Peachtree City, Ga » Text Product » GA Regional Weather Roundup


Printer-friendly Version
Current Version              Previous Versions:   1  2  3  4  5  6  7  8  9  

Regional Weather Roundup

709
ASUS42 KFFC 160403
RWRGA
WEATHER ROUNDUP FOR GEORGIA
NATIONAL WEATHER SERVICE PEACHTREE CITY GA
1200 AM EDT WED APR 16 2014

NOTE: "FAIR" INDICATES FEW OR NO CLOUDS BELOW 12,000 FEET WITH NO
SIGNIFICANT WEATHER AND/OR OBSTRUCTIONS TO VISIBILITY.

* = USE WITH CAUTION. THE STATIONS MARKED WITH AN ASTERISK MAY NOT
REPORT WEATHER SUCH AS PRECIPITATION, FOG, OR THUNDER AND ARE NOT
QUALITY CONTROLLED BY NWS.

THE REMARK "TC" DENOTES TEMPERATURE READING IN DEGREES CELSIUS.

GAZ001>058-160500-
NORTH GEORGIA

CITY           SKY/WX    TMP DP  RH WIND       PRES   REMARKS
ATLANTA        PTCLDY    39  26  59 NW12      30.10R WCI  32
ATHENS         CLEAR     39  29  67 NW9       30.07R WCI  33
CHAMBLEE       CLEAR     38  23  55 NW8G18    30.10R WCI  32
PEACHTREE CITY CLEAR     39  27  62 NW12      30.12R WCI  32
ROME           NOT AVBL
WEST ATLANTA   CLEAR     39  25  57 VRB6      30.13R WCI  35
GAINESVILLE    CLEAR     39  26  59 NW8       30.07R WCI  33
CARTERSVILLE   CLEAR     37  28  70 CALM      30.16R


CITY           SKY/WX    TMP DP  RH WIND       PRES   REMARKS
DALTON*        CLEAR     36  30  80 N8        30.17R WCI  29
MARIETTA       CLEAR     38  26  60 NW9       30.12R WCI  32
$$

GAZ059>098-102>109-160500-
CENTRAL GEORGIA

CITY           SKY/WX    TMP DP  RH WIND       PRES   REMARKS
AUGUSTA-BUSH   CLEAR     46  35  65 N10       30.03R
AUGUSTA-DANIEL CLEAR     48  35  60 N9        30.04R
COLUMBUS       PTCLDY    43  29  57 N8        30.14R
MACON          PTCLDY    42  31  64 NW10      30.09R
ROBINS AFB     PTCLDY    42  33  69 NW14      30.09R


CITY           SKY/WX    TMP DP  RH WIND       PRES   REMARKS
LAGRANGE*      PTCLDY    41  31  67 NW6       30.14R
SYLVANIA*      MOCLDY    50  38  64 NW9       30.02R
MILLEDGEVILLE* PTCLDY    45  27  49 NW8       30.08R
$$

GAZ099>101-110>166-160500-
SOUTH GEORGIA

CITY           SKY/WX    TMP DP  RH WIND       PRES   REMARKS
SAVANNAH       PTCLDY    51  39  63 W13       29.99R
VALDOSTA       PTCLDY    49  37  63 VRB3      30.07R
ALMA           PTCLDY    47  36  65 NW15G22   30.04R
ST SIMONS      CLEAR     51  42  71 NW13G20   30.00R
FT STEWART     PTCLDY    49  42  76 NW9       30.00R
ALBANY         PTCLDY    45  33  63 NW9       30.13R
HUNTER AFB     PTCLDY    50  40  68 NW13      29.97R
MOODY AFB      PTCLDY    47  37  70 NW12      30.07R
BRUNSWICK      CLEAR     50  43  76 W8        30.01R


CITY           SKY/WX    TMP DP  RH WIND       PRES   REMARKS
BAINBRIDGE*    PTCLDY    48  41  76 N6        30.12R
MOULTRIE*      PTCLDY    46  37  71 NW10G16   30.10R
VIDALIA*       MOCLDY    45  36  70 NW6       30.05R
DOUGLAS*       MOCLDY    46  37  71 NW10G17   30.07R
$$



USA.gov is the U.S. government's official web portal to all federal, state and local government web resources and services.